DW5542 Weather Reports


Display with metric or nautical units.
time (UTC)temp
F
wind
direction
speed
MPH
gust
MPH
rain 1hr
in
rain 24hr
in
rain mn
in
humidity
%
barometer
mb
20260904193105 80 123 0.0 0.0 0.00 0.00 0.00 81 1016.7
20260904191612 81 152 0.0 0.0 0.00 0.00 0.00 80 1016.6
20260904190159 81 142 0.0 0.0 0.00 0.00 0.00 80 1016.4
20260904184605 81 152 0.0 0.0 0.00 0.00 0.00 79 1016.2
20260904183057 81 106 0.0 0.0 0.00 0.00 0.00 78 1016.1
20260904181556 82 148 0.0 0.0 0.00 0.00 0.00 77 1016.1
20260904180056 82 148 0.0 0.0 0.00 0.00 0.00 75 1016.1
20260904174555 83 105 0.0 0.0 0.00 0.00 0.00 75 1016.0
20260904173056 83 101 0.0 0.0 0.00 0.00 0.00 73 1016.1
20260904171600 84 105 0.0 0.0 0.00 0.00 0.00 73 1016.0
20260904170055 85 124 0.0 0.0 0.00 0.00 0.00 72 1016.2
20260904164557 85 114 0.0 2.0 0.00 0.00 0.00 72 1016.0
20260904163051 85 107 0.0 0.0 0.00 0.00 0.00 72 1016.1
20260904161551 85 94 0.0 1.0 0.00 0.00 0.00 72 1016.2
20260904160054 85 139 0.0 3.0 0.00 0.00 0.00 72 1016.3
20260904154552 86 147 0.0 1.0 0.00 0.00 0.00 72 1016.3
20260904153049 86 139 1.0 6.0 0.00 0.00 0.00 72 1016.1
20260904151550 86 145 0.0 8.0 0.00 0.00 0.00 71 1016.1
20260904150048 85 170 0.0 5.0 0.00 0.00 0.00 72 1016.1
20260904144547 86 156 0.0 9.0 0.00 0.00 0.00 73 1016.1
20260904143045 86 169 1.0 10.0 0.00 0.00 0.00 73 1016.3
20260904141544 85 149 1.0 11.0 0.00 0.00 0.00 74 1016.3
20260904140059 85 129 0.0 9.0 0.00 0.00 0.00 75 1016.5
20260904134544 86 143 0.0 9.0 0.00 0.00 0.00 73 1016.5
20260904133044 86 134 1.0 10.0 0.00 0.00 0.00 71 1016.6
20260904131545 86 143 0.0 9.0 0.00 0.00 0.00 72 1016.9
20260904130048 86 164 0.0 2.0 0.00 0.00 0.00 70 1017.0
20260904124538 85 173 2.0 8.0 0.00 0.00 0.00 72 1017.0
20260904123035 86 124 1.0 8.0 0.00 0.00 0.00 70 1017.0
20260904121534 86 156 1.0 8.0 0.00 0.00 0.00 72 1017.1
20260904120031 85 177 0.0 9.0 0.00 0.00 0.00 72 1017.2
20260904114530 86 173 0.0 5.0 0.00 0.00 0.00 72 1017.2
20260904113033 85 164 0.0 8.0 0.00 0.00 0.00 74 1017.3
20260904111537 85 169 1.0 9.0 0.00 0.00 0.00 73 1017.5
20260904110025 85 255 0.0 11.0 0.00 0.00 0.00 71 1017.5
20260904104525 85 241 1.0 9.0 0.00 0.00 0.00 72 1017.6
20260904103023 85 163 0.0 10.0 0.00 0.00 0.00 73 1017.8
20260904101521 86 151 0.0 5.0 0.00 0.00 0.00 70 1017.8
20260904100020 86 219 0.0 1.0 0.00 0.00 0.00 66 1017.9
20260904094518 85 232 0.0 1.0 0.00 0.00 0.00 66 1017.9
20260904093019 85 166 0.0 0.0 0.00 0.00 0.00 65 1017.8
20260904091514 85 332 0.0 0.0 0.00 0.00 0.00 62 1017.9
20260904090012 84 250 0.0 3.0 0.00 0.00 0.00 63 1017.9
20260904084509 83 244 0.0 5.0 0.00 0.00 0.00 64 1017.7
20260904083006 82 284 0.0 0.0 0.00 0.00 0.00 67 1017.7
20260904081506 81 343 0.0 0.0 0.00 0.00 0.00 68 1017.7
20260904080100 80 335 0.0 0.0 0.00 0.00 0.00 70 1017.6
20260904074609 79 328 0.0 3.0 0.00 0.00 0.00 73 1017.7
20260904073058 78 318 0.0 0.0 0.00 0.00 0.00 76 1017.7
20260904071551 76 312 0.0 0.0 0.00 0.00 0.00 78 1017.8
20260904070051 76 281 0.0 0.0 0.00 0.00 0.00 81 1017.9
20260904064550 75 337 0.0 0.0 0.00 0.00 0.00 84 1017.9
20260904063058 73 337 0.0 0.0 0.00 0.00 0.00 85 1018.0
20260904061548 73 337 0.0 0.0 0.00 0.00 0.00 86 1017.9
20260904060047 72 337 0.0 0.0 0.00 0.00 0.00 86 1017.8
20260904054543 0 0.0 0.0 0.00 0.00 0.00 1017.7
20260904053039 0 0.0 0.0 0.00 0.00 0.00 1017.8
20260904051554 0 0.0 0.0 0.00 0.00 0.00 1017.8
20260904050030 0 0.0 0.0 0.00 0.00 0.00 1017.9
20260904044526 0 0.0 0.0 0.00 0.00 0.00 1017.9
20260904043021 0 0.0 0.0 0.00 0.00 0.00 1017.9
20260904041520 0 0.0 0.0 0.00 0.00 0.00 1017.8
20260904040020 0 0.0 0.0 0.00 0.00 0.00 1017.8
20260904034508 0 0.0 0.0 0.00 0.00 0.00 1018.0
20260904033003 73 337 0.0 0.0 0.00 0.00 0.00 85 1018.1
20260904031502 74 338 0.0 0.0 0.00 0.00 0.00 85 1018.1
20260904030100 74 337 0.0 0.0 0.00 0.00 0.00 86 1018.2
20260904024559 74 338 0.0 0.0 0.00 0.00 0.00 86 1018.0
20260904023056 75 338 0.0 0.0 0.00 0.00 0.00 86 1018.1
20260904021554 75 337 0.0 0.0 0.00 0.00 0.00 86 1018.2
20260904020052 75 328 0.0 0.0 0.00 0.00 0.00 86 1018.3
20260904014603 75 316 0.0 0.0 0.00 0.00 0.00 86 1018.4
20260904013048 75 333 0.0 0.0 0.00 0.00 0.00 87 1018.5
20260904011547 76 309 0.0 0.0 0.00 0.00 0.00 88 1018.5
20260904010059 75 327 0.0 0.0 0.00 0.00 0.00 88 1018.6
20260904004544 76 333 0.0 0.0 0.00 0.00 0.00 87 1018.8
20260904003042 76 333 0.0 0.0 0.00 0.00 0.00 87 1018.8
20260904001543 76 326 0.0 0.0 0.00 0.00 0.00 87 1018.8
20260904000047 76 312 0.0 2.0 0.00 0.00 0.00 87 1018.8
20260903234537 77 321 0.0 0.0 0.00 0.00 0.00 87 1018.9
20260903233035 77 335 0.0 0.0 0.00 0.00 0.00 87 1019.1
20260903231534 77 335 0.0 0.0 0.00 0.00 0.00 87 1019.2
20260903230033 77 340 0.0 0.0 0.00 0.00 0.00 88 1019.1
20260903224531 77 342 0.0 0.0 0.00 0.00 0.00 87 1019.2
20260903223034 77 347 0.0 0.0 0.00 0.00 0.00 87 1019.3
20260903221527 78 329 0.0 0.0 0.00 0.00 0.00 87 1019.4
20260903220024 78 326 0.0 0.0 0.00 0.00 0.00 87 1019.5
20260903214524 78 316 0.0 0.0 0.00 0.00 0.00 87 1019.7
20260903213022 79 111 0.0 0.0 0.00 0.00 0.00 87 1019.7
20260903211523 79 114 0.0 0.0 0.00 0.00 0.00 86 1019.7
20260903210023 79 115 0.0 0.0 0.00 0.00 0.00 87 1019.7
20260903204521 79 115 0.0 0.0 0.00 0.00 0.00 87 1019.8
20260903203032 80 110 0.0 0.0 0.00 0.00 0.00 86 1019.6
20260903201520 80 135 0.0 0.0 0.00 0.00 0.00 85 1019.7
20260903200020 80 158 0.0 0.0 0.00 0.00 0.00 85 1019.4
20260903194520 80 133 0.0 0.0 0.00 0.00 0.00 84 1019.2